Lid_Strength_Index
2 3 3 4 4 4 4 4 3 3 3 2 2 3 3 3 3 5 8 5 4 -1 -1 0 4 4 3 3 3 3 8 11 10 10 9 6 7 5 4 6 5 4 5 3 2
2 2 2 3 3 4 4 4 3 3 3 2 2 3 3 3 5 6 2 -1 -3 -2 3 4 5 5 5 5 4 6 9 9 7 7 7 6 6 6 7 7 7 6 4 2 2
2 2 3 3 3 3 4 4 3 3 2 2 3 3 3 3 6 6 -1 -2 -2 -1 3 4 5 5 6 5 5 6 8 7 7 6 5 6 7 5 7 8 6 6 5 3 3
2 2 3 3 3 4 3 3 3 2 2 3 3 3 2 2 8 3 -2 -3 -2 2 3 4 5 6 6 7 5 8 6 6 6 5 6 7 6 7 6 6 4 4 4 3 4
3 3 3 3 3 3 3 3 4 2 2 3 3 3 3 5 4 0 -2 -2 -0 4 4 5 5 5 7 6 6 7 7 6 5 6 5 6 7 7 7 5 4 4 4 4 4
3 3 3 3 4 3 3 4 4 3 2 3 3 2 4 6 1 -1 0 1 3 4 4 5 5 3 5 6 7 6 6 6 6 6 6 7 7 7 6 5 5 4 4 4 4
3 3 3 4 4 3 4 4 4 3 2 2 2 2 4 5 0 -0 2 3 3 4 5 4 2 4 5 7 5 6 8 7 6 7 7 6 9 9 6 5 5 5 5 4 3
3 3 3 4 4 4 4 4 4 4 3 1 1 2 6 3 -1 1 3 4 3 3 4 3 3 3 5 4 6 8 8 11 8 7 7 7 11 7 5 6 6 5 5 4 4
3 4 4 4 4 4 4 4 3 3 2 1 3 3 7 1 3 2 3 5 4 4 3 1 2 5 5 8 9 9 11 11 9 7 8 8 10 8 6 6 6 6 5 5 4
3 3 4 4 4 4 4 4 2 2 2 2 2 6 5 6 4 4 3 4 5 5 5 4 5 6 7 8 11 10 10 10 10 8 8 10 10 8 7 6 7 6 5 5 4
3 3 4 4 4 4 5 3 5 5 3 6 6 6 6 4 3 4 4 4 4 5 7 5 7 8 7 7 7 8 9 9 9 8 9 9 9 8 7 7 7 6 6 5 4
3 3 4 4 4 4 5 6 5 4 7 6 4 5 4 3 6 4 3 5 5 6 7 8 8 6 7 6 7 8 9 10 9 8 9 9 10 8 8 8 7 7 6 5 4
4 4 4 4 4 5 6 6 5 4 6 6 5 4 4 3 6 5 4 5 6 7 7 8 7 7 7 7 8 8 9 10 10 10 9 10 11 10 8 7 7 6 5 5 5
4 4 4 5 5 4 5 4 5 5 7 8 6 4 4 4 6 4 3 5 6 7 7 7 7 7 8 7 7 9 7 8 10 11 12 10 14 11 10 9 8 7 6 5 5
5 5 4 5 5 5 4 3 5 5 13 8 5 4 5 5 5 5 3 5 7 7 7 7 7 7 8 7 6 8 7 8 9 10 11 12 14 11 10 11 9 8 6 5 4
5 5 4 5 5 4 3 4 4 8 13 8 5 6 7 6 6 5 4 4 5 7 7 7 6 7 7 6 6 6 8 8 9 10 14 11 13 12 11 10 9 7 6 5 5
5 5 5 4 5 3 4 3 8 11 8 9 8 6 7 7 6 6 6 7 8 9 9 7 7 7 6 8 7 8 10 13 14 14 15 12 14 12 9 8 8 7 6 5 4
6 6 5 4 3 3 3 5 11 10 9 6 7 7 9 8 7 7 8 8 7 7 8 10 11 8 6 7 9 9 10 13 17 16 14 12 15 12 8 7 6 6 5 5 5
7 5 5 4 4 3 4 9 9 9 8 8 8 9 9 8 8 8 8 8 7 7 9 10 10 7 6 6 7 9 11 9 13 12 13 12 11 8 8 8 7 7 6 6 5
5 4 5 4 3 3 6 9 8 7 7 7 10 9 11 10 9 9 9 7 8 7 6 9 11 8 7 6 7 8 7 12 11 16 16 14 14 13 9 9 8 7 6 5 5
3 5 3 3 3 4 8 8 7 5 6 8 9 10 10 10 9 10 10 8 7 7 6 7 9 10 8 9 9 8 9 10 10 12 15 16 14 8 9 8 8 7 6 5 5
5 6 2 4 5 7 7 7 7 6 5 7 7 8 9 9 10 10 10 8 6 6 9 8 10 12 10 7 7 7 9 9 12 14 12 13 13 7 7 7 7 6 6 5 4
5 5 2 3 7 7 6 6 6 6 6 7 8 7 7 9 11 9 9 6 6 7 8 7 10 13 12 9 7 9 9 9 10 10 13 14 12 6 7 7 6 6 5 5 5
5 7 4 4 5 6 7 7 7 5 6 6 7 7 8 9 8 10 9 7 6 6 7 6 10 11 13 11 9 11 10 9 10 12 12 11 11 9 8 8 6 6 6 6 7
4 7 5 8 7 7 7 7 8 8 6 6 8 8 9 10 10 10 9 8 7 6 7 7 11 10 10 9 10 10 10 9 10 10 12 11 11 9 8 7 6 5 6 7 7
6 7 5 7 7 7 8 8 9 7 8 8 8 8 7 9 9 10 8 8 9 7 8 8 11 10 11 9 10 11 10 9 9 10 10 10 10 6 6 6 6 6 7 8 5
4 3 5 8 8 8 8 8 9 7 6 6 7 7 8 7 6 6 6 6 7 8 9 9 10 11 13 10 11 13 11 10 10 9 9 11 9 7 6 6 6 6 5 5 5